Weather History for Hattiesburg, MS

Change the Weather History Date:

Sunday, January 10, 2010

  Actual Average Record
Temperature  
Mean Temperature 29 °F 49 °F  
Max Temperature 40 °F 60 °F 84 °F (1949)
Min Temperature 17 °F 37 °F 11 °F (1962)
Degree Days  
Heating Degree Days 36 17  
Month to date heating degree days 320 163  
Since 1 July heating degree days 1213 948  
Cooling Degree Days 0 0  
Month to date cooling degree days 0 0  
Year to date cooling degree days 0 0  
Moisture  
Dew Point 14 °F    
Average Humidity 57    
Maximum Humidity 84    
Minimum Humidity 30    
Precipitation  
Precipitation 0.00 in 0.17 in 1.61 in (2009)
Month to date precipitation 0.42 1.82  
Year to date precipitation 0.42 1.82  
Sea Level Pressure  
Sea Level Pressure 30.60 in    
Wind  
Wind Speed 5 mph (NNW)    
Max Wind Speed 12 mph    
Max Gust Speed 16 mph    
Visibility 10 miles    
Events      
T = Trace of Precipitation, MM = Missing Value Source: NWS Daily Summary

Daily Weather History Graph

Daily Weather History Graph

Search for Another Location

Airport:

Trip Planner

Search our weather history database for the weather conditions in past years. The results will help you decide how hot, cold, wet, or windy it might be!

Date:

Astronomy

Jan. 10, 2010 Rise Set
Actual Time 6:56 AM CST 5:12 PM CST
Civil Twilight 6:30 AM CST 5:39 PM CST
Nautical Twilight 6:00 AM CST 6:08 PM CST
Astronomical Twilight 5:31 AM CST 6:38 PM CST
Moon 3:06 AM CST (1/10) 1:22 PM CST (1/10)
Length of Visible Light 11h 08m
Length of Day
10h 15m
Waning Crescent, 18% of the Moon is Illuminated
Jan 10
Waning Crescent
Jan 15
New
Jan 23
First Quarter
Jan 30
Full
Feb 5
Last Quarter

Hourly Weather History & Observations

Time (CST) Temp. Windchill Dew Point Humidity Pressure Visibility Wind Dir Wind Speed Gust Speed Precip Events Conditions
12:53 AM 21.0 °F 12.4 °F 16.0 °F 81% 30.57 in 10.0 mi NNW 6.9 mph - N/A   Clear
1:53 AM 19.9 °F 11.1 °F 15.1 °F 81% 30.57 in 10.0 mi NW 6.9 mph - N/A   Clear
2:53 AM 19.9 °F 12.1 °F 15.1 °F 81% 30.57 in 10.0 mi NW 5.8 mph - N/A   Clear
3:53 AM 19.0 °F 10.0 °F 15.1 °F 85% 30.58 in 10.0 mi NNW 6.9 mph - N/A   Clear
4:53 AM 18.0 °F 11.1 °F 14.0 °F 84% 30.60 in 10.0 mi NW 4.6 mph - N/A   Clear
5:53 AM 18.0 °F 9.8 °F 14.0 °F 84% 30.63 in 10.0 mi NNW 5.8 mph - N/A   Clear
6:53 AM 17.1 °F 8.7 °F 12.9 °F 84% 30.64 in 10.0 mi NW 5.8 mph - N/A   Clear
7:53 AM 19.0 °F 8.2 °F 14.0 °F 81% 30.66 in 10.0 mi NNW 9.2 mph - N/A   Clear
8:53 AM 21.9 °F 12.5 °F 14.0 °F 72% 30.66 in 10.0 mi North 8.1 mph - N/A   Clear
9:53 AM 26.1 °F 18.4 °F 14.0 °F 60% 30.68 in 10.0 mi Variable 6.9 mph - N/A   Clear
10:53 AM 28.9 °F 20.4 °F 14.0 °F 54% 30.66 in 10.0 mi NNW 9.2 mph - N/A   Clear
11:53 AM 32.0 °F 24.2 °F 12.9 °F 45% 30.63 in 10.0 mi NW 9.2 mph - N/A   Clear
12:53 PM 35.1 °F 27.4 °F 10.9 °F 37% 30.60 in 10.0 mi North 10.4 mph - N/A   Clear
1:53 PM 37.9 °F 32.1 °F 10.9 °F 33% 30.57 in 10.0 mi NNW 8.1 mph - N/A   Clear
2:53 PM 39.0 °F 32.8 °F 12.0 °F 33% 30.57 in 10.0 mi North 9.2 mph - N/A   Clear
3:53 PM 39.0 °F 35.7 °F 10.9 °F 32% 30.57 in 10.0 mi NNW 4.6 mph - N/A   Clear
4:53 PM 37.9 °F 33.5 °F 10.9 °F 33% 30.57 in 10.0 mi North 5.8 mph - N/A   Clear
5:53 PM 28.9 °F - 16.0 °F 58% 30.58 in 10.0 mi Calm Calm - N/A   Clear
6:53 PM 27.0 °F - 17.1 °F 66% 30.59 in 10.0 mi Calm Calm - N/A   Clear
7:53 PM 25.0 °F - 19.0 °F 78% 30.60 in 10.0 mi Calm Calm - N/A   Clear
8:53 PM 24.1 °F - 18.0 °F 77% 30.60 in 10.0 mi Calm Calm - N/A   Clear
10:53 PM 21.0 °F - 17.1 °F 85% 30.59 in 10.0 mi Calm Calm - N/A   Clear
11:53 PM 19.9 °F - 16.0 °F 85% 30.58 in 10.0 mi Calm Calm - N/A   Clear